,,PressureMeas_1m,,PRMeasQMR101_1,,RHStat155_1m_1,,SRMeasQMS101R_1m,,TAStat155_1m_1,,GenWind_1,,GenWind_1,
2019-03-24, 00:00:06,VALID,919.117,VALID,0.0,VALID,98.983,VALID,-0.025,VALID,20.362,VALID,345.0,VALID,0.0,
2019-03-24, 00:01:07,VALID,919.144,VALID,0.0,VALID,98.996,VALID,-0.024,VALID,20.363,VALID,339.0,VALID,0.0,
2019-03-24, 00:02:07,VALID,919.139,VALID,0.0,VALID,98.989,VALID,-0.021,VALID,20.393,VALID,331.0,VALID,0.0,
2019-03-24, 00:03:07,VALID,919.121,VALID,0.0,VALID,99.012,VALID,-0.011,VALID,20.412,VALID,335.0,VALID,0.0,
2019-03-24, 00:04:07,VALID,919.124,VALID,0.0,VALID,99.036,VALID,-0.025,VALID,20.457,VALID,339.0,VALID,0.0,
2019-03-24, 00:05:07,VALID,919.12,VALID,0.0,VALID,99.018,VALID,-0.03,VALID,20.448,VALID,346.0,VALID,0.0,
2019-03-24, 00:06:07,VALID,919.105,VALID,0.0,VALID,99.007,VALID,-0.034,VALID,20.448,VALID,345.0,VALID,0.0,
2019-03-24, 00:07:07,VALID,919.099,VALID,0.0,VALID,99.025,VALID,-0.013,VALID,20.44,VALID,339.0,VALID,0.0,
2019-03-24, 00:08:07,VALID,919.089,VALID,0.0,VALID,99.025,VALID,-0.032,VALID,20.456,VALID,339.0,VALID,0.0,
2019-03-24, 00:09:07,VALID,919.071,VALID,0.0,VALID,99.012,VALID,-0.026,VALID,20.438,VALID,339.0,VALID,0.0,
2019-03-24, 00:10:07,VALID,919.049,VALID,0.0,VALID,99.007,VALID,-0.023,VALID,20.416,VALID,336.0,VALID,0.0,
2019-03-24, 00:11:07,VALID,919.006,VALID,0.0,VALID,99.005,VALID,-0.019,VALID,20.417,VALID,300.0,VALID,0.0,
2019-03-24, 00:12:07,VALID,918.984,VALID,0.0,VALID,98.981,VALID,-0.025,VALID,20.404,VALID,293.0,VALID,0.0,
2019-03-24, 00:13:07,VALID,918.944,VALID,0.0,VALID,99.012,VALID,-0.031,VALID,20.43,VALID,343.0,VALID,0.0,
2019-03-24, 00:14:07,VALID,918.881,VALID,0.0,VALID,99.048,VALID,-0.006,VALID,20.415,VALID,5.0,VALID,0.0,
2019-03-24, 00:15:07,VALID,918.876,VALID,0.0,VALID,98.984,VALID,0.004,VALID,20.347,VALID,348.0,VALID,0.0,
2019-03-24, 00:16:07,VALID,918.852,VALID,0.0,VALID,98.971,VALID,0.009,VALID,20.307,VALID,355.0,VALID,0.0,
2019-03-24, 00:17:07,VALID,918.823,VALID,0.0,VALID,98.965,VALID,0.007,VALID,20.275,VALID,345.0,VALID,0.0,
2019-03-24, 00:18:07,VALID,918.809,VALID,0.0,VALID,99.006,VALID,0.024,VALID,20.279,VALID,342.0,VALID,0.0,
2019-03-24, 00:19:07,VALID,918.8,VALID,0.0,VALID,98.993,VALID,0.011,VALID,20.277,VALID,334.0,VALID,0.0,
2019-03-24, 00:20:07,VALID,918.795,VALID,0.0,VALID,98.993,VALID,-0.001,VALID,20.267,VALID,341.0,VALID,0.0,
2019-03-24, 00:21:07,VALID,918.787,VALID,0.0,VALID,99.002,VALID,0.012,VALID,20.277,VALID,314.0,VALID,0.0,
2019-03-24, 00:22:07,VALID,918.782,VALID,0.0,VALID,99.011,VALID,0.004,VALID,20.276,VALID,325.0,VALID,0.0,
2019-03-24, 00:23:07,VALID,918.791,VALID,0.0,VALID,99.032,VALID,0.015,VALID,20.299,VALID,360.0,VALID,0.0,
2019-03-24, 00:24:07,VALID,918.797,VALID,0.0,VALID,99.02,VALID,0.002,VALID,20.295,VALID,347.0,VALID,0.0,
2019-03-24, 00:25:07,VALID,918.797,VALID,0.0,VALID,99.002,VALID,0.0,VALID,20.282,VALID,336.0,VALID,0.0,
2019-03-24, 00:26:07,VALID,918.806,VALID,0.0,VALID,99.022,VALID,-0.004,VALID,20.274,VALID,325.0,VALID,0.0,
2019-03-24, 00:27:07,VALID,918.804,VALID,0.0,VALID,99.008,VALID,0.012,VALID,20.277,VALID,350.0,VALID,0.0,
2019-03-24, 00:28:07,VALID,918.797,VALID,0.0,VALID,99.026,VALID,-0.002,VALID,20.295,VALID,325.0,VALID,0.0,
2019-03-24, 00:29:07,VALID,918.757,VALID,0.0,VALID,99.026,VALID,0.0,VALID,20.294,VALID,312.0,VALID,0.0,
2019-03-24, 00:30:07,VALID,918.738,VALID,0.0,VALID,99.018,VALID,0.021,VALID,20.312,VALID,326.0,VALID,0.0,
2019-03-24, 00:31:07,VALID,918.709,VALID,0.0,VALID,99.025,VALID,0.019,VALID,20.318,VALID,308.0,VALID,0.0,
2019-03-24, 00:32:07,VALID,918.672,VALID,0.0,VALID,99.049,VALID,0.021,VALID,20.326,VALID,309.0,VALID,0.0,
2019-03-24, 00:33:07,VALID,918.656,VALID,0.0,VALID,99.058,VALID,0.019,VALID,20.329,VALID,336.0,VALID,0.0,
2019-03-24, 00:34:07,VALID,918.643,VALID,0.0,VALID,99.038,VALID,-0.009,VALID,20.329,VALID,337.0,VALID,0.0,
2019-03-24, 00:35:07,VALID,918.632,VALID,0.0,VALID,99.039,VALID,-0.003,VALID,20.341,VALID,308.0,VALID,0.0,
2019-03-24, 00:36:07,VALID,918.61,VALID,0.0,VALID,99.06,VALID,0.009,VALID,20.355,VALID,322.0,VALID,0.0,
2019-03-24, 00:37:07,VALID,918.595,VALID,0.0,VALID,99.046,VALID,-0.002,VALID,20.345,VALID,331.0,VALID,0.0,
2019-03-24, 00:38:07,VALID,918.571,VALID,0.0,VALID,99.058,VALID,0.002,VALID,20.334,VALID,341.0,VALID,0.0,
2019-03-24, 00:39:07,VALID,918.55,VALID,0.0,VALID,99.053,VALID,0.01,VALID,20.332,VALID,330.0,VALID,0.0,
2019-03-24, 00:40:07,VALID,918.54,VALID,0.0,VALID,99.036,VALID,0.008,VALID,20.298,VALID,350.0,VALID,0.0,
2019-03-24, 00:41:07,VALID,918.533,VALID,0.0,VALID,99.027,VALID,-0.009,VALID,20.289,VALID,353.0,VALID,0.0,
2019-03-24, 00:42:07,VALID,918.534,VALID,0.0,VALID,99.042,VALID,-0.009,VALID,20.282,VALID,353.0,VALID,0.0,
2019-03-24, 00:43:07,VALID,918.555,VALID,0.0,VALID,99.043,VALID,0.001,VALID,20.304,VALID,348.0,VALID,0.0,
2019-03-24, 00:44:07,VALID,918.59,VALID,0.0,VALID,99.047,VALID,-0.014,VALID,20.319,VALID,359.0,VALID,0.0,
2019-03-24, 00:45:07,VALID,918.64,VALID,0.0,VALID,99.054,VALID,-0.022,VALID,20.327,VALID,347.0,VALID,0.0,
2019-03-24, 00:46:07,VALID,918.671,VALID,0.0,VALID,99.038,VALID,-0.025,VALID,20.336,VALID,308.0,VALID,0.0,
2019-03-24, 00:47:07,VALID,918.694,VALID,0.0,VALID,99.053,VALID,-0.046,VALID,20.336,VALID,325.0,VALID,0.0,
2019-03-24, 00:48:07,VALID,918.715,VALID,0.0,VALID,99.041,VALID,-0.018,VALID,20.355,VALID,324.0,VALID,0.0,
2019-03-24, 00:49:07,VALID,918.715,VALID,0.0,VALID,99.06,VALID,-0.006,VALID,20.365,VALID,315.0,VALID,0.0,
2019-03-24, 00:50:07,VALID,918.715,VALID,0.0,VALID,99.048,VALID,-0.009,VALID,20.374,VALID,10.0,VALID,0.0,
2019-03-24, 00:51:07,VALID,918.724,VALID,0.0,VALID,99.059,VALID,-0.014,VALID,20.395,VALID,33.0,VALID,0.0,
2019-03-24, 00:52:07,VALID,918.703,VALID,0.0,VALID,99.037,VALID,-0.016,VALID,20.387,VALID,13.0,VALID,0.0,
2019-03-24, 00:53:07,VALID,918.705,VALID,0.0,VALID,99.065,VALID,-0.021,VALID,20.4,VALID,320.0,VALID,0.0,
2019-03-24, 00:54:07,VALID,918.696,VALID,0.0,VALID,99.01,VALID,-0.015,VALID,20.364,VALID,338.0,VALID,0.0,
2019-03-24, 00:55:07,VALID,918.695,VALID,0.0,VALID,99.008,VALID,-0.021,VALID,20.334,VALID,3.0,VALID,0.0,
2019-03-24, 00:56:07,VALID,918.699,VALID,0.0,VALID,99.009,VALID,-0.008,VALID,20.324,VALID,340.0,VALID,0.0,
2019-03-24, 00:57:07,VALID,918.705,VALID,0.0,VALID,99.03,VALID,-0.01,VALID,20.381,VALID,20.0,VALID,0.0,
2019-03-24, 00:58:07,VALID,918.708,VALID,0.0,VALID,99.054,VALID,-0.009,VALID,20.393,VALID,350.0,VALID,0.0,
2019-03-24, 00:59:07,VALID,918.709,VALID,0.0,VALID,99.033,VALID,0.001,VALID,20.38,VALID,345.0,VALID,0.0,
2019-03-24, 01:00:07,VALID,918.715,VALID,0.0,VALID,99.045,VALID,0.011,VALID,20.407,VALID,345.0,VALID,0.0,
2019-03-24, 01:01:07,VALID,918.728,VALID,0.0,VALID,99.017,VALID,0.015,VALID,20.4,VALID,330.0,VALID,0.0,
2019-03-24, 01:02:07,VALID,918.721,VALID,0.0,VALID,98.996,VALID,0.015,VALID,20.38,VALID,324.0,VALID,0.0,
2019-03-24, 01:03:07,VALID,918.749,VALID,0.0,VALID,99.022,VALID,0.024,VALID,20.399,VALID,324.0,VALID,0.0,
2019-03-24, 01:04:07,VALID,918.756,VALID,0.0,VALID,99.023,VALID,0.012,VALID,20.408,VALID,324.0,VALID,0.0,
2019-03-24, 01:05:07,VALID,918.766,VALID,0.0,VALID,99.013,VALID,-0.004,VALID,20.401,VALID,324.0,VALID,0.0,
2019-03-24, 01:06:07,VALID,918.753,VALID,0.0,VALID,99.026,VALID,0.015,VALID,20.418,VALID,324.0,VALID,0.0,
2019-03-24, 01:07:07,VALID,918.746,VALID,0.0,VALID,99.043,VALID,0.005,VALID,20.451,VALID,324.0,VALID,0.0,
2019-03-24, 01:08:07,VALID,918.738,VALID,0.0,VALID,99.036,VALID,0.009,VALID,20.451,VALID,314.0,VALID,0.0,
2019-03-24, 01:09:07,VALID,918.75,VALID,0.0,VALID,99.066,VALID,0.024,VALID,20.485,VALID,265.0,VALID,0.0,
2019-03-24, 01:10:07,VALID,918.742,VALID,0.0,VALID,99.07,VALID,0.022,VALID,20.522,VALID,265.0,VALID,0.0,
2019-03-24, 01:11:07,VALID,918.757,VALID,0.0,VALID,99.011,VALID,-0.002,VALID,20.466,VALID,265.0,VALID,0.0,
2019-03-24, 01:12:07,VALID,918.759,VALID,0.0,VALID,99.014,VALID,-0.001,VALID,20.455,VALID,265.0,VALID,0.0,
2019-03-24, 01:13:07,VALID,918.755,VALID,0.0,VALID,99.038,VALID,0.02,VALID,20.46,VALID,266.0,VALID,0.0,
2019-03-24, 01:14:07,VALID,918.756,VALID,0.0,VALID,99.043,VALID,-0.009,VALID,20.48,VALID,267.0,VALID,0.0,
2019-03-24, 01:15:07,VALID,918.744,VALID,0.0,VALID,99.076,VALID,-0.033,VALID,20.525,VALID,267.0,VALID,0.0,
2019-03-24, 01:16:07,VALID,918.725,VALID,0.0,VALID,99.081,VALID,-0.034,VALID,20.596,VALID,267.0,VALID,0.0,
2019-03-24, 01:17:07,VALID,918.712,VALID,0.0,VALID,99.093,VALID,-0.023,VALID,20.602,VALID,348.0,VALID,0.0,
2019-03-24, 01:18:07,VALID,918.697,VALID,0.0,VALID,99.064,VALID,-0.048,VALID,20.553,VALID,10.0,VALID,0.0,
2019-03-24, 01:19:07,VALID,918.683,VALID,0.0,VALID,99.066,VALID,-0.03,VALID,20.529,VALID,15.0,VALID,0.0,
2019-03-24, 01:20:07,VALID,918.664,VALID,0.0,VALID,99.077,VALID,-0.037,VALID,20.576,VALID,20.0,VALID,0.0,
2019-03-24, 01:21:07,VALID,918.68,VALID,0.0,VALID,99.086,VALID,-0.029,VALID,20.588,VALID,16.0,VALID,0.0,
2019-03-24, 01:22:07,VALID,918.663,VALID,0.0,VALID,99.076,VALID,-0.029,VALID,20.577,VALID,350.0,VALID,0.0,
2019-03-24, 01:23:07,VALID,918.678,VALID,0.0,VALID,99.05,VALID,-0.032,VALID,20.547,VALID,5.0,VALID,0.0,
2019-03-24, 01:24:07,VALID,918.66,VALID,0.0,VALID,99.066,VALID,-0.019,VALID,20.552,VALID,347.0,VALID,0.0,
2019-03-24, 01:25:07,VALID,918.64,VALID,0.0,VALID,99.038,VALID,-0.023,VALID,20.555,VALID,348.0,VALID,0.0,
2019-03-24, 01:26:07,VALID,918.601,VALID,0.0,VALID,99.01,VALID,-0.028,VALID,20.525,VALID,1.0,VALID,0.0,
2019-03-24, 01:27:07,VALID,918.572,VALID,0.0,VALID,99.021,VALID,-0.013,VALID,20.521,VALID,10.0,VALID,0.0,
2019-03-24, 01:28:07,VALID,918.531,VALID,0.0,VALID,98.996,VALID,-0.012,VALID,20.532,VALID,7.0,VALID,0.0,
2019-03-24, 01:29:07,VALID,918.526,VALID,0.0,VALID,99.01,VALID,-0.009,VALID,20.531,VALID,7.0,VALID,0.0,
2019-03-24, 01:30:07,VALID,918.507,VALID,0.0,VALID,98.989,VALID,-0.011,VALID,20.536,VALID,5.0,VALID,0.0,
2019-03-24, 01:31:07,VALID,918.51,VALID,0.0,VALID,99.0,VALID,0.015,VALID,20.57,VALID,12.0,VALID,0.0,
2019-03-24, 01:32:07,VALID,918.503,VALID,0.0,VALID,99.023,VALID,0.009,VALID,20.585,VALID,350.0,VALID,0.0,
2019-03-24, 01:33:07,VALID,918.497,VALID,0.0,VALID,98.989,VALID,-0.005,VALID,20.577,VALID,339.0,VALID,0.0,
2019-03-24, 01:34:07,VALID,918.498,VALID,0.0,VALID,98.951,VALID,-0.011,VALID,20.576,VALID,340.0,VALID,0.0,
2019-03-24, 01:35:07,VALID,918.487,VALID,0.0,VALID,98.947,VALID,-0.015,VALID,20.564,VALID,348.0,VALID,0.0,
2019-03-24, 01:36:07,VALID,918.483,VALID,0.0,VALID,98.92,VALID,-0.01,VALID,20.569,VALID,351.0,VALID,0.0,
2019-03-24, 01:37:07,VALID,918.446,VALID,0.0,VALID,98.92,VALID,-0.009,VALID,20.571,VALID,352.0,VALID,0.0,
2019-03-24, 01:38:07,VALID,918.416,VALID,0.0,VALID,98.95,VALID,-0.019,VALID,20.612,VALID,345.0,VALID,0.0,
2019-03-24, 01:39:07,VALID,918.393,VALID,0.0,VALID,98.961,VALID,-0.021,VALID,20.639,VALID,345.0,VALID,0.0,
2019-03-24, 01:40:07,VALID,918.374,VALID,0.0,VALID,98.947,VALID,-0.005,VALID,20.665,VALID,345.0,VALID,0.0,
2019-03-24, 01:41:07,VALID,918.349,VALID,0.0,VALID,98.942,VALID,-0.002,VALID,20.706,VALID,359.0,VALID,0.0,
2019-03-24, 01:42:07,VALID,918.315,VALID,0.0,VALID,98.914,VALID,-0.001,VALID,20.63,VALID,2.0,VALID,0.0,
2019-03-24, 01:43:07,VALID,918.283,VALID,0.0,VALID,98.83,VALID,-0.001,VALID,20.576,VALID,15.0,VALID,0.0,
2019-03-24, 01:44:07,VALID,918.259,VALID,0.0,VALID,98.854,VALID,-0.002,VALID,20.605,VALID,39.0,VALID,0.0,
2019-03-24, 01:45:07,VALID,918.263,VALID,0.0,VALID,98.843,VALID,-0.003,VALID,20.599,VALID,22.0,VALID,0.0,
2019-03-24, 01:46:07,VALID,918.246,VALID,0.0,VALID,98.867,VALID,0.02,VALID,20.622,VALID,11.0,VALID,0.0,
2019-03-24, 01:47:07,VALID,918.252,VALID,0.0,VALID,98.843,VALID,0.015,VALID,20.623,VALID,348.0,VALID,0.0,
2019-03-24, 01:48:07,VALID,918.244,VALID,0.0,VALID,98.854,VALID,0.005,VALID,20.634,VALID,358.0,VALID,0.0,
2019-03-24, 01:49:07,VALID,918.24,VALID,0.0,VALID,98.838,VALID,-0.004,VALID,20.628,VALID,354.0,VALID,0.0,
2019-03-24, 01:50:07,VALID,918.226,VALID,0.0,VALID,98.838,VALID,0.001,VALID,20.632,VALID,3.0,VALID,0.0,
2019-03-24, 01:51:07,VALID,918.221,VALID,0.0,VALID,98.799,VALID,0.019,VALID,20.614,VALID,11.0,VALID,0.0,
2019-03-24, 01:52:07,VALID,918.201,VALID,0.0,VALID,98.816,VALID,0.018,VALID,20.657,VALID,24.0,VALID,0.0,
2019-03-24, 01:53:07,VALID,918.175,VALID,0.0,VALID,98.81,VALID,0.015,VALID,20.666,VALID,25.0,VALID,0.0,
2019-03-24, 01:54:07,VALID,918.144,VALID,0.0,VALID,98.824,VALID,0.018,VALID,20.666,VALID,25.0,VALID,0.0,
2019-03-24, 01:55:07,VALID,918.115,VALID,0.0,VALID,98.784,VALID,0.023,VALID,20.645,VALID,25.0,VALID,0.0,
2019-03-24, 01:56:07,VALID,918.09,VALID,0.0,VALID,98.806,VALID,0.007,VALID,20.67,VALID,25.0,VALID,0.0,
2019-03-24, 01:57:07,VALID,918.062,VALID,0.0,VALID,98.808,VALID,0.023,VALID,20.679,VALID,25.0,VALID,0.0,
2019-03-24, 01:58:07,VALID,918.028,VALID,0.0,VALID,98.765,VALID,0.009,VALID,20.63,VALID,34.0,VALID,0.0,
2019-03-24, 01:59:07,VALID,918.027,VALID,0.0,VALID,98.751,VALID,0.023,VALID,20.626,VALID,43.0,VALID,0.0,
2019-03-24, 02:00:07,VALID,918.019,VALID,0.0,VALID,98.718,VALID,0.026,VALID,20.604,VALID,37.0,VALID,0.0,
2019-03-24, 02:01:07,VALID,918.031,VALID,0.0,VALID,98.713,VALID,0.023,VALID,20.596,VALID,37.0,VALID,0.0,
2019-03-24, 02:02:07,VALID,918.031,VALID,0.0,VALID,98.692,VALID,0.017,VALID,20.573,VALID,37.0,VALID,0.0,
2019-03-24, 02:03:07,VALID,918.017,VALID,0.0,VALID,98.704,VALID,0.017,VALID,20.589,VALID,37.0,VALID,0.0,
2019-03-24, 02:04:07,VALID,918.0,VALID,0.0,VALID,98.729,VALID,0.011,VALID,20.605,VALID,37.0,VALID,0.0,
2019-03-24, 02:05:07,VALID,917.994,VALID,0.0,VALID,98.756,VALID,0.019,VALID,20.632,VALID,37.0,VALID,0.0,
2019-03-24, 02:06:07,VALID,917.995,VALID,0.0,VALID,98.736,VALID,0.002,VALID,20.626,VALID,37.0,VALID,0.0,
2019-03-24, 02:07:07,VALID,917.969,VALID,0.0,VALID,98.758,VALID,0.016,VALID,20.661,VALID,37.0,VALID,0.0,
2019-03-24, 02:08:06,VALID,917.956,VALID,0.0,VALID,98.794,VALID,0.002,VALID,20.723,VALID,37.0,VALID,0.0,
2019-03-24, 02:09:06,VALID,917.94,VALID,0.0,VALID,98.768,VALID,0.004,VALID,20.725,VALID,37.0,VALID,0.0,
2019-03-24, 02:10:06,VALID,917.921,VALID,0.0,VALID,98.757,VALID,0.008,VALID,20.709,VALID,37.0,VALID,0.0,
2019-03-24, 02:11:06,VALID,917.906,VALID,0.0,VALID,98.769,VALID,0.016,VALID,20.719,VALID,37.0,VALID,0.0,
2019-03-24, 02:12:06,VALID,917.868,VALID,0.0,VALID,98.803,VALID,0.026,VALID,20.766,VALID,36.0,VALID,0.0,
2019-03-24, 02:13:06,VALID,917.879,VALID,0.0,VALID,98.743,VALID,0.017,VALID,20.757,VALID,277.0,VALID,0.0,
2019-03-24, 02:14:06,VALID,917.866,VALID,0.0,VALID,98.689,VALID,-0.009,VALID,20.745,VALID,271.0,VALID,0.0,
2019-03-24, 02:15:06,VALID,917.846,VALID,0.0,VALID,98.655,VALID,0.008,VALID,20.743,VALID,271.0,VALID,0.0,
2019-03-24, 02:16:06,VALID,917.82,VALID,0.0,VALID,98.677,VALID,-0.002,VALID,20.763,VALID,271.0,VALID,0.0,
2019-03-24, 02:17:06,VALID,917.82,VALID,0.0,VALID,98.687,VALID,0.002,VALID,20.77,VALID,272.0,VALID,0.0,
2019-03-24, 02:18:06,VALID,917.816,VALID,0.0,VALID,98.703,VALID,0.019,VALID,20.772,VALID,273.0,VALID,0.0,
2019-03-24, 02:19:06,VALID,917.811,VALID,0.0,VALID,98.662,VALID,-0.002,VALID,20.75,VALID,273.0,VALID,0.0,
2019-03-24, 02:20:06,VALID,917.813,VALID,0.0,VALID,98.668,VALID,0.023,VALID,20.754,VALID,273.0,VALID,0.0,
2019-03-24, 02:21:06,VALID,917.781,VALID,0.0,VALID,98.694,VALID,0.006,VALID,20.77,VALID,273.0,VALID,0.0,
2019-03-24, 02:22:06,VALID,917.786,VALID,0.0,VALID,98.689,VALID,0.001,VALID,20.749,VALID,271.0,VALID,0.0,
2019-03-24, 02:23:06,VALID,917.796,VALID,0.0,VALID,98.613,VALID,-0.013,VALID,20.683,VALID,211.0,VALID,0.0,
2019-03-24, 02:24:06,VALID,917.803,VALID,0.0,VALID,98.628,VALID,0.007,VALID,20.659,VALID,204.0,VALID,0.0,
2019-03-24, 02:25:06,VALID,917.804,VALID,0.0,VALID,98.633,VALID,-0.01,VALID,20.645,VALID,191.0,VALID,0.0,
2019-03-24, 02:26:06,VALID,917.82,VALID,0.0,VALID,98.637,VALID,0.004,VALID,20.642,VALID,177.0,VALID,0.0,
2019-03-24, 02:27:06,VALID,917.825,VALID,0.0,VALID,98.682,VALID,-0.0,VALID,20.648,VALID,177.0,VALID,0.0,
2019-03-24, 02:28:06,VALID,917.826,VALID,0.0,VALID,98.708,VALID,0.002,VALID,20.662,VALID,177.0,VALID,0.0,
2019-03-24, 02:29:06,VALID,917.828,VALID,0.0,VALID,98.742,VALID,-0.001,VALID,20.668,VALID,177.0,VALID,0.0,
2019-03-24, 02:30:06,VALID,917.83,VALID,0.0,VALID,98.746,VALID,0.033,VALID,20.677,VALID,150.0,VALID,0.0,
2019-03-24, 02:31:06,VALID,917.813,VALID,0.0,VALID,98.808,VALID,0.007,VALID,20.738,VALID,84.0,VALID,0.0,
2019-03-24, 02:32:06,VALID,917.81,VALID,0.0,VALID,98.822,VALID,0.013,VALID,20.772,VALID,84.0,VALID,0.0,
2019-03-24, 02:33:06,VALID,917.795,VALID,0.0,VALID,98.831,VALID,0.013,VALID,20.804,VALID,83.0,VALID,0.0,
2019-03-24, 02:34:06,VALID,917.789,VALID,0.0,VALID,98.825,VALID,0.013,VALID,20.799,VALID,83.0,VALID,0.0,
2019-03-24, 02:35:06,VALID,917.748,VALID,0.0,VALID,98.794,VALID,0.003,VALID,20.776,VALID,83.0,VALID,0.0,
2019-03-24, 02:36:06,VALID,917.733,VALID,0.0,VALID,98.781,VALID,0.003,VALID,20.762,VALID,83.0,VALID,0.0,
2019-03-24, 02:37:06,VALID,917.678,VALID,0.0,VALID,98.796,VALID,0.006,VALID,20.774,VALID,83.0,VALID,0.0,
2019-03-24, 02:38:06,VALID,917.626,VALID,0.0,VALID,98.81,VALID,0.001,VALID,20.797,VALID,83.0,VALID,0.0,
2019-03-24, 02:39:06,VALID,917.614,VALID,0.0,VALID,98.797,VALID,0.018,VALID,20.793,VALID,83.0,VALID,0.0,
2019-03-24, 02:40:06,VALID,917.61,VALID,0.0,VALID,98.802,VALID,0.008,VALID,20.763,VALID,83.0,VALID,0.0,
2019-03-24, 02:41:06,VALID,917.603,VALID,0.0,VALID,98.758,VALID,0.011,VALID,20.714,VALID,83.0,VALID,0.0,
2019-03-24, 02:42:06,VALID,917.606,VALID,0.0,VALID,98.742,VALID,0.017,VALID,20.686,VALID,83.0,VALID,0.0,
2019-03-24, 02:43:06,VALID,917.607,VALID,0.0,VALID,98.725,VALID,-0.015,VALID,20.676,VALID,85.0,VALID,0.0,
2019-03-24, 02:44:06,VALID,917.6,VALID,0.0,VALID,98.751,VALID,0.022,VALID,20.673,VALID,91.0,VALID,0.0,
2019-03-24, 02:45:06,VALID,917.616,VALID,0.0,VALID,98.735,VALID,0.037,VALID,20.654,VALID,92.0,VALID,0.0,
2019-03-24, 02:46:06,VALID,917.609,VALID,0.0,VALID,98.714,VALID,0.027,VALID,20.631,VALID,103.0,VALID,0.0,
2019-03-24, 02:47:06,VALID,917.6,VALID,0.0,VALID,98.71,VALID,0.005,VALID,20.62,VALID,126.0,VALID,0.0,
2019-03-24, 02:48:06,VALID,917.609,VALID,0.0,VALID,98.657,VALID,0.008,VALID,20.587,VALID,140.0,VALID,0.0,
2019-03-24, 02:49:06,VALID,917.598,VALID,0.0,VALID,98.659,VALID,0.014,VALID,20.603,VALID,140.0,VALID,0.0,
2019-03-24, 02:50:06,VALID,917.566,VALID,0.0,VALID,98.626,VALID,0.022,VALID,20.61,VALID,140.0,VALID,0.0,
2019-03-24, 02:51:06,VALID,917.553,VALID,0.0,VALID,98.642,VALID,0.021,VALID,20.634,VALID,140.0,VALID,0.0,
2019-03-24, 02:52:06,VALID,917.512,VALID,0.0,VALID,98.621,VALID,0.038,VALID,20.641,VALID,140.0,VALID,0.0,
2019-03-24, 02:53:06,VALID,917.484,VALID,0.0,VALID,98.578,VALID,0.03,VALID,20.614,VALID,121.0,VALID,0.0,
2019-03-24, 02:54:06,VALID,917.461,VALID,0.0,VALID,98.555,VALID,0.026,VALID,20.6,VALID,72.0,VALID,0.0,
2019-03-24, 02:55:06,VALID,917.443,VALID,0.0,VALID,98.562,VALID,0.029,VALID,20.585,VALID,72.0,VALID,0.0,
2019-03-24, 02:56:06,VALID,917.446,VALID,0.0,VALID,98.53,VALID,0.029,VALID,20.556,VALID,72.0,VALID,0.0,
2019-03-24, 02:57:06,VALID,917.452,VALID,0.0,VALID,98.498,VALID,0.022,VALID,20.497,VALID,72.0,VALID,0.0,
2019-03-24, 02:58:06,VALID,917.442,VALID,0.0,VALID,98.464,VALID,0.027,VALID,20.455,VALID,72.0,VALID,0.0,
2019-03-24, 02:59:06,VALID,917.431,VALID,0.0,VALID,98.49,VALID,-0.006,VALID,20.447,VALID,72.0,VALID,0.0,
2019-03-24, 03:00:06,VALID,917.43,VALID,0.0,VALID,98.457,VALID,-0.03,VALID,20.393,VALID,70.0,VALID,0.0,
2019-03-24, 03:01:06,VALID,917.426,VALID,0.0,VALID,98.416,VALID,-0.03,VALID,20.327,VALID,60.0,VALID,0.0,
2019-03-24, 03:02:06,VALID,917.415,VALID,0.0,VALID,98.412,VALID,-0.011,VALID,20.276,VALID,51.0,VALID,0.0,
2019-03-24, 03:03:06,VALID,917.397,VALID,0.0,VALID,98.465,VALID,-0.018,VALID,20.275,VALID,51.0,VALID,0.0,
2019-03-24, 03:04:06,VALID,917.389,VALID,0.0,VALID,98.52,VALID,-0.041,VALID,20.278,VALID,51.0,VALID,0.0,
2019-03-24, 03:05:06,VALID,917.398,VALID,0.0,VALID,98.528,VALID,-0.02,VALID,20.267,VALID,38.0,VALID,0.0,
2019-03-24, 03:06:06,VALID,917.393,VALID,0.0,VALID,98.593,VALID,-0.028,VALID,20.294,VALID,11.0,VALID,0.0,
2019-03-24, 03:07:06,VALID,917.424,VALID,0.0,VALID,98.649,VALID,-0.024,VALID,20.342,VALID,3.0,VALID,0.0,
2019-03-24, 03:08:06,VALID,917.427,VALID,0.0,VALID,98.661,VALID,-0.021,VALID,20.355,VALID,3.0,VALID,0.0,
2019-03-24, 03:09:06,VALID,917.448,VALID,0.0,VALID,98.695,VALID,-0.017,VALID,20.367,VALID,2.0,VALID,0.0,
2019-03-24, 03:10:06,VALID,917.447,VALID,0.0,VALID,98.679,VALID,-0.009,VALID,20.352,VALID,2.0,VALID,0.0,
2019-03-24, 03:11:06,VALID,917.419,VALID,0.0,VALID,98.647,VALID,-0.021,VALID,20.327,VALID,13.0,VALID,0.0,
2019-03-24, 03:12:06,VALID,917.436,VALID,0.0,VALID,98.646,VALID,-0.04,VALID,20.311,VALID,22.0,VALID,0.0,
2019-03-24, 03:13:06,VALID,917.422,VALID,0.0,VALID,98.639,VALID,-0.022,VALID,20.289,VALID,27.0,VALID,0.0,
2019-03-24, 03:14:06,VALID,917.411,VALID,0.0,VALID,98.643,VALID,-0.021,VALID,20.27,VALID,42.0,VALID,0.0,
2019-03-24, 03:15:06,VALID,917.403,VALID,0.0,VALID,98.626,VALID,-0.011,VALID,20.241,VALID,64.0,VALID,0.0,
2019-03-24, 03:16:06,VALID,917.389,VALID,0.0,VALID,98.66,VALID,-0.003,VALID,20.241,VALID,66.0,VALID,0.0,
2019-03-24, 03:17:06,VALID,917.385,VALID,0.0,VALID,98.664,VALID,-0.011,VALID,20.228,VALID,66.0,VALID,0.0,
2019-03-24, 03:18:06,VALID,917.356,VALID,0.0,VALID,98.691,VALID,0.001,VALID,20.224,VALID,98.0,VALID,0.0,
2019-03-24, 03:19:06,VALID,917.346,VALID,0.0,VALID,98.736,VALID,-0.001,VALID,20.237,VALID,129.0,VALID,0.0,
2019-03-24, 03:20:06,VALID,917.326,VALID,0.0,VALID,98.793,VALID,0.001,VALID,20.272,VALID,115.0,VALID,0.0,
2019-03-24, 03:21:06,VALID,917.298,VALID,0.0,VALID,98.785,VALID,-0.019,VALID,20.285,VALID,127.0,VALID,0.0,
2019-03-24, 03:22:06,VALID,917.294,VALID,0.0,VALID,98.768,VALID,-0.014,VALID,20.253,VALID,119.0,VALID,0.0,
2019-03-24, 03:23:06,VALID,917.302,VALID,0.0,VALID,98.764,VALID,-0.014,VALID,20.234,VALID,119.0,VALID,0.0,
2019-03-24, 03:24:06,VALID,917.272,VALID,0.0,VALID,98.799,VALID,-0.009,VALID,20.231,VALID,98.0,VALID,0.0,
2019-03-24, 03:25:06,VALID,917.237,VALID,0.0,VALID,98.82,VALID,-0.006,VALID,20.218,VALID,99.0,VALID,0.0,
2019-03-24, 03:26:06,VALID,917.219,VALID,0.0,VALID,98.814,VALID,-0.005,VALID,20.205,VALID,98.0,VALID,0.0,
2019-03-24, 03:27:06,VALID,917.198,VALID,0.0,VALID,98.821,VALID,0.001,VALID,20.184,VALID,94.0,VALID,0.0,
2019-03-24, 03:28:06,VALID,917.168,VALID,0.0,VALID,98.833,VALID,-0.005,VALID,20.158,VALID,88.0,VALID,0.0,
2019-03-24, 03:29:06,VALID,917.153,VALID,0.0,VALID,98.857,VALID,-0.002,VALID,20.152,VALID,90.0,VALID,0.0,
2019-03-24, 03:30:06,VALID,917.116,VALID,0.0,VALID,98.863,VALID,0.009,VALID,20.128,VALID,91.0,VALID,0.0,
2019-03-24, 03:31:06,VALID,917.139,VALID,0.0,VALID,98.847,VALID,-0.005,VALID,20.1,VALID,89.0,VALID,0.0,
2019-03-24, 03:32:06,VALID,917.122,VALID,0.0,VALID,98.855,VALID,-0.02,VALID,20.077,VALID,89.0,VALID,0.0,
2019-03-24, 03:33:06,VALID,917.134,VALID,0.0,VALID,98.88,VALID,-0.011,VALID,20.065,VALID,80.0,VALID,0.0,
2019-03-24, 03:34:06,VALID,917.133,VALID,0.0,VALID,98.888,VALID,-0.024,VALID,20.054,VALID,81.0,VALID,0.0,
2019-03-24, 03:35:06,VALID,917.149,VALID,0.0,VALID,98.907,VALID,0.011,VALID,20.039,VALID,86.0,VALID,0.0,
2019-03-24, 03:36:06,VALID,917.139,VALID,0.0,VALID,98.919,VALID,-0.019,VALID,20.025,VALID,96.0,VALID,0.0,
2019-03-24, 03:37:06,VALID,917.133,VALID,0.0,VALID,98.922,VALID,-0.007,VALID,20.008,VALID,107.0,VALID,0.0,
2019-03-24, 03:38:06,VALID,917.115,VALID,0.0,VALID,98.944,VALID,0.014,VALID,20.005,VALID,112.0,VALID,0.0,
2019-03-24, 03:39:06,VALID,917.093,VALID,0.0,VALID,98.96,VALID,-0.001,VALID,20.022,VALID,114.0,VALID,1.156,
2019-03-24, 03:40:06,VALID,917.067,VALID,0.0,VALID,99.014,VALID,-0.002,VALID,20.065,VALID,115.0,VALID,1.737,
2019-03-24, 03:41:06,VALID,917.044,VALID,0.0,VALID,98.995,VALID,0.001,VALID,20.07,VALID,113.0,VALID,1.52,
2019-03-24, 03:42:06,VALID,917.041,VALID,0.0,VALID,99.025,VALID,0.005,VALID,20.086,VALID,118.0,VALID,1.614,
2019-03-24, 03:43:06,VALID,917.015,VALID,0.0,VALID,99.034,VALID,0.0,VALID,20.09,VALID,115.0,VALID,1.386,